OAL1SM LGSK-LGAV

Flight info

Callsign OAL1SM
Flight time 0h 34m
Altitude 17000
Route SIGFO M749 ROPOX
Aircraft AT76/M-SDFGIRY/S

Departure

Time 2026-04-25 18:19
Airport Skiathos Island National Airport (LGSK)

Arrival

Time 2026-04-25 18:54
Airport Athens Eleftherios Venizelos International Airport (LGAV)
Time Latitude Longitude Altitude Speed Heading
2026-04-25 17:58 39.17649 23.50193 35 ft 0 kts 109°
2026-04-25 17:59 39.17629 23.50188 35 ft 0 kts 109°
2026-04-25 18:15 39.17629 23.50190 35 ft 2 kts 109°
2026-04-25 18:16 39.17615 23.50220 35 ft 5 kts 145°
2026-04-25 18:16 39.17574 23.50231 35 ft 8 kts 136°
2026-04-25 18:16 39.17463 23.50259 35 ft 12 kts 199°
2026-04-25 18:17 39.17373 23.50218 31 ft 17 kts 200°
2026-04-25 18:17 39.17246 23.50163 22 ft 20 kts 198°
2026-04-25 18:17 39.17125 23.50110 17 ft 13 kts 200°
2026-04-25 18:17 39.17061 23.50089 14 ft 9 kts 173°
2026-04-25 18:18 39.17013 23.50086 7 ft 6 kts 223°
2026-04-25 18:18 39.17016 23.50065 7 ft 3 kts 319°
2026-04-25 18:18 39.17034 23.50069 9 ft 1 kts 15°
2026-04-25 18:18 39.17046 23.50074 10 ft 2 kts 16°
2026-04-25 18:19 39.17252 23.50163 22 ft 63 kts 19°
2026-04-25 18:19 39.17862 23.50434 37 ft 119 kts 18°
2026-04-25 18:19 39.18693 23.50781 428 ft 127 kts 14°
2026-04-25 18:19 39.19546 23.51078 1005 ft 126 kts 16°
2026-04-25 18:20 39.20386 23.51401 1596 ft 126 kts 19°
2026-04-25 18:20 39.21184 23.51835 2130 ft 128 kts 37°
2026-04-25 18:20 39.21754 23.52811 2229 ft 155 kts 64°
2026-04-25 18:20 39.22094 23.54181 2578 ft 160 kts 79°
2026-04-25 18:21 39.22297 23.55590 2951 ft 166 kts 77°
2026-04-25 18:21 39.22557 23.57107 3184 ft 175 kts 83°
2026-04-25 18:21 39.22174 23.58585 3549 ft 182 kts 132°
2026-04-25 18:21 39.21361 23.59346 3854 ft 185 kts 145°
2026-04-25 18:22 39.20686 23.59915 4129 ft 185 kts 143°
2026-04-25 18:22 39.20340 23.60216 4253 ft 186 kts 143°
2026-04-25 18:22 39.18589 23.61876 4982 ft 186 kts 139°
2026-04-25 18:22 39.17376 23.62440 5319 ft 193 kts 179°
2026-04-25 18:23 39.16025 23.62369 5731 ft 194 kts 180°
2026-04-25 18:23 39.14688 23.62324 6131 ft 195 kts 179°
2026-04-25 18:23 39.13334 23.62349 6515 ft 195 kts 176°
2026-04-25 18:23 39.11983 23.62467 6877 ft 195 kts 173°
2026-04-25 18:24 39.10640 23.62655 7240 ft 195 kts 171°
2026-04-25 18:24 39.09290 23.62864 7598 ft 195 kts 171°
2026-04-25 18:24 39.07941 23.63070 7955 ft 195 kts 172°
2026-04-25 18:24 39.06592 23.63274 8310 ft 196 kts 172°
2026-04-25 18:25 39.05240 23.63486 8665 ft 196 kts 171°
2026-04-25 18:25 39.03886 23.63711 9018 ft 196 kts 171°
2026-04-25 18:25 39.02532 23.63934 9354 ft 197 kts 172°
2026-04-25 18:25 39.01186 23.64138 9694 ft 197 kts 172°
2026-04-25 18:26 38.99824 23.64343 10018 ft 197 kts 172°
2026-04-25 18:26 38.98439 23.64547 10315 ft 198 kts 172°
2026-04-25 18:26 38.97079 23.64751 10602 ft 200 kts 172°
2026-04-25 18:26 38.95695 23.64956 10887 ft 201 kts 172°
2026-04-25 18:27 38.94302 23.65172 11166 ft 202 kts 171°
2026-04-25 18:27 38.92903 23.65385 11442 ft 203 kts 172°
2026-04-25 18:27 38.91489 23.65581 11713 ft 205 kts 172°
2026-04-25 18:27 38.90069 23.65784 11993 ft 206 kts 171°
2026-04-25 18:28 38.88641 23.65992 12282 ft 207 kts 171°
2026-04-25 18:28 38.87203 23.66205 12553 ft 208 kts 171°
2026-04-25 18:28 38.85758 23.66419 12824 ft 210 kts 171°
2026-04-25 18:29 38.83337 23.66778 13267 ft 211 kts 171°
2026-04-25 18:29 38.81872 23.66993 13516 ft 212 kts 171°
2026-04-25 18:30 38.77436 23.67643 14240 ft 216 kts 171°
2026-04-25 18:30 38.75943 23.67861 14463 ft 216 kts 171°
2026-04-25 18:30 38.74439 23.68082 14680 ft 218 kts 171°
2026-04-25 18:30 38.72933 23.68302 14881 ft 219 kts 171°
2026-04-25 18:31 38.71415 23.68524 15097 ft 220 kts 170°
2026-04-25 18:31 38.69913 23.68745 15289 ft 220 kts 170°
2026-04-25 18:31 38.68388 23.68971 15481 ft 222 kts 171°
2026-04-25 18:31 38.66852 23.69193 15685 ft 222 kts 170°
2026-04-25 18:32 38.65310 23.69420 15900 ft 224 kts 170°
2026-04-25 18:32 38.63764 23.69646 16114 ft 224 kts 170°
2026-04-25 18:32 38.62208 23.69875 16308 ft 225 kts 170°
2026-04-25 18:32 38.60645 23.70101 16492 ft 226 kts 170°
2026-04-25 18:33 38.59079 23.70332 16682 ft 227 kts 170°
2026-04-25 18:33 38.57504 23.70562 16860 ft 229 kts 170°
2026-04-25 18:33 38.55903 23.70796 16953 ft 234 kts 170°
2026-04-25 18:33 38.54268 23.71034 16985 ft 240 kts 170°
2026-04-25 18:34 38.52584 23.71280 17014 ft 246 kts 171°
2026-04-25 18:34 38.50865 23.71531 17023 ft 250 kts 171°
2026-04-25 18:34 38.49121 23.71784 17030 ft 254 kts 171°
2026-04-25 18:34 38.47372 23.72040 17037 ft 258 kts 170°
2026-04-25 18:35 38.45579 23.72312 17032 ft 261 kts 170°
2026-04-25 18:35 38.43768 23.72586 17027 ft 262 kts 171°
2026-04-25 18:35 38.41948 23.72834 17023 ft 264 kts 171°
2026-04-25 18:35 38.40118 23.73096 17034 ft 265 kts 171°
2026-04-25 18:36 38.38285 23.73360 17029 ft 266 kts 171°
2026-04-25 18:36 38.36442 23.73626 17026 ft 266 kts 171°
2026-04-25 18:36 38.34595 23.73894 17022 ft 267 kts 171°
2026-04-25 18:36 38.32747 23.74162 17024 ft 268 kts 171°
2026-04-25 18:37 38.30893 23.74430 17017 ft 268 kts 170°
2026-04-25 18:37 38.29037 23.74699 17018 ft 269 kts 171°
2026-04-25 18:37 38.27176 23.74968 17013 ft 269 kts 170°
2026-04-25 18:37 38.25316 23.75237 17009 ft 269 kts 171°
2026-04-25 18:38 38.23479 23.75502 17016 ft 269 kts 171°
2026-04-25 18:38 38.21615 23.75769 17007 ft 270 kts 170°
2026-04-25 18:38 38.19696 23.76051 16637 ft 283 kts 171°
2026-04-25 18:38 38.17708 23.76243 16254 ft 292 kts 182°
2026-04-25 18:39 38.15723 23.75478 15853 ft 307 kts 205°
2026-04-25 18:39 38.13903 23.74037 15435 ft 308 kts 214°
2026-04-25 18:39 38.12168 23.72440 15042 ft 307 kts 215°
2026-04-25 18:39 38.10436 23.70851 14643 ft 306 kts 213°
2026-04-25 18:40 38.08677 23.69333 14242 ft 305 kts 212°
2026-04-25 18:40 38.06928 23.67887 13853 ft 303 kts 211°
2026-04-25 18:40 38.05170 23.66422 13431 ft 302 kts 212°
2026-04-25 18:40 38.03424 23.64956 13010 ft 300 kts 211°
2026-04-25 18:41 38.01686 23.63501 12593 ft 299 kts 212°
2026-04-25 18:41 37.99957 23.62054 12190 ft 296 kts 211°
2026-04-25 18:41 37.98245 23.60622 11789 ft 294 kts 211°
2026-04-25 18:41 37.96546 23.59201 11410 ft 291 kts 211°
2026-04-25 18:42 37.94862 23.57794 11024 ft 289 kts 211°
2026-04-25 18:42 37.93751 23.56867 10775 ft 288 kts 211°
2026-04-25 18:42 37.91368 23.55561 10273 ft 277 kts 182°
2026-04-25 18:42 37.89477 23.55688 9927 ft 270 kts 171°
2026-04-25 18:43 37.87643 23.56030 9557 ft 269 kts 168°
2026-04-25 18:43 37.85815 23.56506 9189 ft 267 kts 165°
2026-04-25 18:43 37.84025 23.57110 8818 ft 266 kts 161°
2026-04-25 18:43 37.82280 23.57861 8465 ft 264 kts 158°
2026-04-25 18:44 37.80600 23.58784 8119 ft 262 kts 153°
2026-04-25 18:44 37.79015 23.59903 7779 ft 260 kts 147°
2026-04-25 18:44 37.77554 23.61244 7448 ft 258 kts 140°
2026-04-25 18:44 37.76254 23.62805 7121 ft 257 kts 132°
2026-04-25 18:45 37.75139 23.64563 6797 ft 256 kts 125°
2026-04-25 18:45 37.74213 23.66457 6472 ft 255 kts 119°
2026-04-25 18:45 37.73441 23.68472 6132 ft 255 kts 114°
2026-04-25 18:45 37.72796 23.70548 5802 ft 252 kts 111°
2026-04-25 18:46 37.71808 23.72323 5459 ft 251 kts 141°
2026-04-25 18:46 37.70190 23.73105 5165 ft 252 kts 173°
2026-04-25 18:46 37.68511 23.73537 4939 ft 244 kts 152°
2026-04-25 18:46 37.67346 23.74991 4884 ft 236 kts 116°
2026-04-25 18:47 37.67080 23.76987 4713 ft 234 kts 81°
2026-04-25 18:47 37.67783 23.78785 4567 ft 231 kts 45°
2026-04-25 18:47 37.69183 23.79718 4418 ft 229 kts 11°
2026-04-25 18:47 37.70758 23.79986 4217 ft 229 kts
2026-04-25 18:48 37.72335 23.80181 4171 ft 233 kts
2026-04-25 18:48 37.73938 23.80348 4106 ft 229 kts
2026-04-25 18:48 37.75506 23.80540 3755 ft 221 kts
2026-04-25 18:48 37.77043 23.80839 3064 ft 230 kts
2026-04-25 18:49 37.78539 23.81282 2998 ft 212 kts 24°
2026-04-25 18:49 37.79761 23.82275 2988 ft 207 kts 35°
2026-04-25 18:49 37.80880 23.83374 2991 ft 200 kts 37°
2026-04-25 18:49 37.81944 23.84447 2881 ft 192 kts 37°
2026-04-25 18:50 37.82979 23.85426 2627 ft 180 kts 34°
2026-04-25 18:50 37.83942 23.86319 2402 ft 162 kts 35°
2026-04-25 18:50 37.84789 23.87124 2194 ft 149 kts 35°
2026-04-25 18:50 37.85583 23.87883 2007 ft 136 kts 36°
2026-04-25 18:51 37.86287 23.88553 1830 ft 115 kts 36°
2026-04-25 18:51 37.86695 23.88943 1733 ft 104 kts 35°
2026-04-25 18:51 37.87496 23.89703 1536 ft 110 kts 34°
2026-04-25 18:51 37.88098 23.90273 1410 ft 108 kts 36°
2026-04-25 18:52 37.88710 23.90854 1253 ft 111 kts 35°
2026-04-25 18:52 37.89329 23.91457 1103 ft 113 kts 35°
2026-04-25 18:52 37.89970 23.92048 963 ft 114 kts 36°
2026-04-25 18:52 37.90590 23.92666 794 ft 113 kts 36°
2026-04-25 18:53 37.91229 23.93256 633 ft 114 kts 35°
2026-04-25 18:53 37.91872 23.93861 476 ft 116 kts 37°
2026-04-25 18:53 37.92515 23.94475 358 ft 116 kts 37°
2026-04-25 18:53 37.93140 23.95070 294 ft 108 kts 37°
2026-04-25 18:54 37.93744 23.95645 276 ft 19 kts 35°
2026-04-25 18:54 37.93887 23.95709 277 ft 13 kts 12°
2026-04-25 18:54 37.93977 23.95726 284 ft 8 kts
2026-04-25 18:55 37.94002 23.95729 286 ft 2 kts
2026-04-25 18:55 37.94013 23.95730 290 ft 1 kts
2026-04-25 18:55 37.94021 23.95730 292 ft 1 kts 355°
2026-04-25 18:55 37.94045 23.95700 292 ft 7 kts 306°
2026-04-25 18:56 37.94080 23.95640 298 ft 10 kts 307°
2026-04-25 18:56 37.94126 23.95566 297 ft 11 kts 309°
2026-04-25 18:56 37.94180 23.95478 297 ft 11 kts 307°
2026-04-25 18:56 37.94220 23.95409 297 ft 10 kts 306°
2026-04-25 18:57 37.94256 23.95346 298 ft 6 kts 306°
2026-04-25 18:57 37.94251 23.95317 297 ft 4 kts 211°
2026-04-25 18:57 37.94218 23.95289 297 ft 6 kts 216°
2026-04-25 18:57 37.94208 23.95279 298 ft 4 kts 216°
2026-04-25 18:58 37.94183 23.95255 297 ft 1 kts 219°